This demonstration page uses our WeatherBlox Daily Observations layout. Learn more.

38.88101, -77.10428

Hourly Observations for August 10, 2020

Temp ( °F °C ) Dew Point ( °F °C ) Humidity (%) Winds ( mph kmh ) Pressure ( in mb ) Visibility ( mi km ) Precip ( " mm )
12:52 am 00:52 Mostly Cloudy 79 26.1 75 23.9 88 88 S 8 13 30.08 1019 10 16.0934 0 0
1:52 am 01:52 Partly Cloudy 78 25.6 74 23.3 87 87 S 7 11 30.08 1019 10 16.0934 0 0
2:52 am 02:52 Partly Cloudy 77 25 74 23.3 90 90 S 6 9 30.07 1018 10 16.0934 0 0
3:52 am 03:52 Partly Cloudy 77 25 74 23.3 90 90 SSW 7 11 30.07 1018 10 16.0934 0 0
4:52 am 04:52 Partly Cloudy 76 24.4 74 23.3 94 94 SSW 6 9 30.07 1018 10 16.0934 0 0
5:52 am 05:52 Mostly Clear 76 24.4 73 22.8 91 91 SW 3 6 30.07 1018 10 16.0934 0 0
6:52 am 06:52 Mostly Sunny 76 24.4 74 23.3 94 94 SSW 3 6 30.07 1018 8 12.87472 0 0
7:52 am 07:52 Mostly Sunny 79 26.1 74 23.3 85 85 S 3 6 30.07 1018 10 16.0934 0 0
8:52 am 08:52 Sunny 80 26.7 75 23.9 85 85 SSE 5 7 30.07 1018 10 16.0934 0 0
9:52 am 09:52 Sunny 82 27.8 75 23.9 79 79 S 6 9 30.07 1018 10 16.0934 0 0
10:52 am 10:52 Mostly Sunny 86 30 76 24.4 72 72 ESE 3 6 30.07 1018 10 16.0934 0 0
11:52 am 11:52 Mostly Sunny 88 31.1 74 23.3 63 63 SE 3 6 30.06 1018 10 16.0934 0 0
12:52 pm 12:52 Partly Cloudy with Light Rain 90 32.2 73 22.8 58 58 S 7 11 30.05 1018 10 16.0934 0.001 0.001
1:52 pm 13:52 Partly Cloudy with Light Rain 91 32.8 70 21.1 50 50 S 8 13 30.03 1017 10 16.0934 0 0
2:52 pm 14:52 Partly Cloudy 91 32.8 72 22.2 54 54 S 8 13 30.01 1016 10 16.0934 0 0
3:52 pm 15:52 Partly Cloudy 90 32.2 73 22.8 58 58 S 8 13 30 1016 10 16.0934 0 0
4:52 pm 16:52 Mostly Cloudy 88 31.1 74 23.3 63 63 S 15 24 29.98 1015 10 16.0934 0 0
5:52 pm 17:52 Mostly Cloudy 89 31.7 73 22.8 59 59 S 10 17 29.98 1015 10 16.0934 0 0
6:52 pm 18:52 Mostly Cloudy 87 30.6 73 22.8 63 63 S 12 19 29.96 1015 10 16.0934 0 0
7:52 pm 19:52 Partly Cloudy 84 28.9 74 23.3 72 72 S 12 19 29.96 1015 10 16.0934 0 0
8:52 pm 20:52 Partly Cloudy 83 28.3 74 23.3 74 74 S 8 13 29.97 1015 10 16.0934 0 0
9:52 pm 21:52 Partly Cloudy 82 27.8 74 23.3 77 77 S 8 13 29.98 1015 10 16.0934 0 0
10:52 pm 22:52 Partly Cloudy 80 26.7 74 23.3 82 82 S 7 11 29.99 1016 10 16.0934 0 0
11:52 pm 23:52 Mostly Cloudy 80 26.7 74 23.3 82 82 S 10 17 29.98 1015 10 16.0934 0 0

Powered by AerisWeather